Home   Weather   Santos   Past weeks

Flag for Brazil Past Weather in Santos, São Paulo, Brazil — Yesterday and Last 2 Weeks

68 °F

More clouds than sun.

Feels Like: 68 °F
Forecast: N/A
Wind: 13 mph from Southeast

Location: Sao Paulo Airport

Current Time: Oct 24, 2016 at 8:04:33 PM

Latest Report: Oct 24, 2016 at 7:00 PM

Visibility: 6 mi

Pressure: 30.04 "Hg

Humidity: 88%

Dew Point: 64 °F

Location of SantosLocation

Past Weather in Santos — Graph


Santos Temperature Yesterday

Maximum temperature yesterday: 79 °F (at 1:00 PM)
Minimum temperature yesterday: 63 °F (at 12:00 AM)
Average temperature yesterday: 68 °F

High & Low Weather Summary for the Past Weeks

High95 °F (Oct 19, 3:00 PM)94% (Oct 10, 6:00 PM)30.30 "Hg (Oct 10, 6:00 PM)
Low59 °F (Oct 10, 5:00 AM)26% (Oct 19, 3:00 PM)29.86 "Hg (Oct 19, 5:00 PM)
Average71 °F74%30.08 "Hg
* Reported Oct 9 6:00 PM — Oct 24 7:00 PM, Santos, Weather by CustomWeather, © 2016

Note: Actual official high and low records may vary slightly from our data, if they occured in-between our weather recording intervals... More about our weather records


Santos Weather History for the Previous 24 Hours

Scroll right to see more
Time TempWeatherWind HumidityBarometerVisibility
7:00 PM
Mon, Oct 24
68 °FMore clouds than sun.13 mph88%30.04 "Hg6 mi
6:00 PM70 °FLow clouds.13 mph83%30.04 "HgN/A
5:00 PM68 °FDrizzle. Low clouds.17 mph88%30.04 "Hg4 mi
3:49 PM73 °FBroken clouds.20 mph74%30.01 "HgN/A
3:00 PM82 °FScattered clouds.12 mph62%30.04 "HgN/A
2:00 PM84 °FScattered clouds.8 mph55%30.07 "HgN/A
1:00 PM81 °FScattered clouds.3 mph54%30.09 "HgN/A
12:00 PM81 °FPassing clouds.3 mph58%30.09 "HgN/A
11:00 AM77 °FPassing clouds.3 mph65%30.12 "HgN/A
10:00 AM73 °FPassing clouds.6 mph61%30.12 "HgN/A
9:00 AM70 °FBroken clouds.5 mph78%30.12 "HgN/A
8:00 AM68 °FLow clouds.6 mph83%30.09 "HgN/A
7:00 AM66 °FLow clouds.3 mph88%30.09 "HgN/A
6:00 AM66 °FMostly cloudy.5 mph88%30.07 "HgN/A
5:00 AM66 °FMostly cloudy.3 mph88%30.07 "HgN/A
4:00 AM66 °FMostly cloudy.7 mph83%30.07 "HgN/A
3:00 AM66 °FMostly cloudy.6 mph88%30.09 "HgN/A
2:00 AM66 °FMostly cloudy.5 mph88%30.09 "HgN/A
1:00 AM66 °FMostly cloudy.6 mph88%30.12 "HgN/A
12:00 AM66 °FMostly cloudy.3 mph88%30.15 "HgN/A
11:01 PM
Sun, Oct 23
66 °FMostly cloudy.8 mph88%30.15 "HgN/A
10:00 PM66 °FMostly cloudy.9 mph88%30.15 "HgN/A
9:00 PM66 °FDrizzle. Low clouds.9 mph88%30.15 "Hg4 mi
8:00 PM66 °FLow clouds.8 mph88%30.12 "Hg6 mi
Weather by CustomWeather, © 2016

See weather overviewHow to use our weather pages